EDT,Max TemperatureF,Mean TemperatureF,Min TemperatureF,Max Dew PointF,MeanDew PointF,Min DewpointF,Max Humidity, Mean Humidity, Min Humidity, Max Sea Level PressureIn, Mean Sea Level PressureIn, Min Sea Level PressureIn, Max VisibilityMiles, Mean VisibilityMiles, Min VisibilityMiles, Max Wind SpeedMPH, Mean Wind SpeedMPH, Max Gust SpeedMPH,PrecipitationIn, CloudCover, Events, WindDirDegrees
2012-10-1,59,54,48,54,48,45,93,80,72,29.65,29.55,29.50,10,10,0,15,8,20,0.07,5,,202
2012-10-2,71,61,51,48,46,45,82,64,38,29.93,29.80,29.66,10,10,10,13,8,18,0.00,1,,256
2012-10-3,66,52,39,48,41,34,87,69,32,30.16,30.05,29.94,10,9,0,13,3,,0.00,1,,344
2012-10-4,60,48,35,48,41,30,88,73,52,30.18,30.09,29.95,10,10,2,9,2,,0.33,3,,137
2012-10-5,62,56,51,55,50,46,88,84,77,29.95,29.84,29.76,10,10,4,12,6,,0.09,7,,161
2012-10-6,64,55,46,57,51,39,88,84,73,29.76,29.65,29.52,10,9,5,17,7,25,0.27,7,,192
2012-10-7,51,46,41,39,36,34,87,69,50,29.97,29.87,29.69,10,10,8,17,6,23,0.00,4,,242
2012-10-8,48,39,28,37,32,25,87,73,46,30.27,30.08,29.94,10,10,8,18,4,22,0.08,5,,281
2012-10-9,53,40,26,34,26,19,86,62,35,30.35,30.28,30.18,10,10,2,13,2,16,0.00,0,,148
2012-10-10,,,,,,,,,,,,,,,,,,,0.00,,,-1
2012-10-11,,,,,,,,,,,,,,,,,,,,,,
2012-10-12,,,,,,,,,,,,,,,,,,,,,,
2012-10-13,,,,,,,,,,,,,,,,,,,,,,
2012-10-14,,,,,,,,,,,,,,,,,,,,,,
2012-10-15,,,,,,,,,,,,,,,,,,,,,,
2012-10-16,,,,,,,,,,,,,,,,,,,,,,
2012-10-17,,,,,,,,,,,,,,,,,,,,,,
2012-10-18,55,50,44,36,34,32,71,54,41,30.08,30.05,30.03,10,10,5,9,7,,0.00,0,,160
2012-10-19,57,49,41,46,42,34,87,75,63,30.12,30.05,29.88,10,10,4,12,6,17,0.02,6,,141
2012-10-20,62,58,53,59,55,46,88,85,77,29.87,29.66,29.52,10,10,5,16,10,24,0.27,8,,152
2012-10-21,59,52,46,55,42,37,94,69,51,29.61,29.57,29.52,10,10,9,20,7,26,0.01,6,,241
2012-10-22,55,48,41,37,32,25,71,54,35,29.76,29.60,29.51,10,10,10,21,12,31,0.00,5,,283
2012-10-23,50,42,30,28,26,21,69,54,40,30.00,29.89,29.77,10,10,10,17,10,29,0.00,3,,309
2012-10-24,44,34,23,25,22,18,80,63,39,30.17,30.07,30.00,10,10,10,22,6,29,0.00,0,,315
2012-10-25,50,36,21,27,22,16,86,65,32,30.26,30.21,30.17,10,10,5,8,1,,0.00,0,,334
2012-10-26,60,43,26,37,30,21,86,61,36,30.18,30.12,30.04,10,10,8,10,2,,0.00,2,,129
2012-10-27,64,48,33,48,38,30,87,70,47,30.08,30.05,30.02,10,9,1,9,1,,0.00,1,,143
2012-10-28,55,46,37,45,40,30,82,74,63,30.11,30.06,30.00,10,10,10,14,6,,0.00,5,,15
2012-10-29,62,56,50,50,47,45,82,73,59,29.99,29.92,29.88,10,10,8,16,10,24,0.00,8,,64
2012-10-30,60,56,53,54,51,46,88,79,72,29.88,29.82,29.75,10,9,5,22,12,32,0.65,8,,89
2012-10-31,62,60,57,55,54,54,94,83,77,29.73,29.57,29.42,10,10,5,21,10,31,0.47,8,,115